Grafton Airport
YGFN : now visible

Airfield :











YOU CAN JOIN US ON...

 
LOGIN :

Register | Disclaimer

   EN    FR    IT 

 









Legend :    VFR   Marginal VFR   IFR   Intensive IFR   Very Intensive IFR
Visi :
Ceiling :
>= 8 km
>= 3000ft
5 to 8 km
1000 to 3000 ft
1500m to 5 km
500 to 1000 ft
800 to 1500m
200 to 500 ft
< 800m
< 200 ft
Symbols :   Thunderstorms  Fog  Heavy snow  Heavy precipitations  Wind > 20 kt






- Airport Elevation : 110 ft
- IATA code : GFN


YGFN - Grafton

CURRENT METAR :
  • 220200Z AUTO 13006KT 9999 // SCT040 SCT053 OVC064 23/20 Q1019

EXPIRED METARs :
  • 220100Z AUTO 17011KT 9999 // SCT014 SCT040 SCT072 23/18 Q1020
  • 220000Z AUTO 17009KT 9999 // SCT014 BKN038 BKN053 21/19 Q1020
  • 212333Z AUTO 15008KT 9999 // SCT012 SCT022 BKN040 21/19 Q1020

TAF N/A
YBBB FIR / Oceania



MET'MAP, your aeronautical weather chart ! - Copyright ORBIFLY December 2007 - Disclaimer

ORBIFLY MET'MAP TEAM :

Programming & Development : Alexandra Zaïnal
Concept & original design : Baudouin d'Aumeries
Assistance for programming : Marc-Olivier Méhu
Technical & hardware support : Manuel Goepfert

Contact : metmap@orbifly.com




SOURCES & CREDITS :

   NOAA       Earth
Advisory